Location: Driftpile
(55.3500°N, 115.7667°W)
Time: 08:53:31
(UTC+00:00)

N. Korean satellite - Pass Details

Date: 04 December 2021
Orbit: 447 x 490 km, 97.3° (Epoch: 26 January)

Event Time Altitude Azimuth Distance (km) Brightness Sun altitude
Rises 14:11:17 0° 5° (N) 2,481 10.0 -13.1°
Reaches altitude 10° 14:13:34 10° 352° (N) 1,597 8.9 -12.7°
Maximum altitude 14:16:23 24° 297° (WNW) 974 7.5 -12.4°
Drops below altitude 10° 14:19:10 10° 241° (WSW) 1,579 8.8 -12.0°
Sets 14:21:25 0° 227° (SW) 2,445 9.9 -11.7°
